Year,Month,Day,Hour,Minute,Value (Times are PST for temperature in C)
2012,06,13,00,02,12.10
2012,06,13,00,04,12.10
2012,06,13,00,05,12.10
2012,06,13,00,06,12.10
2012,06,13,00,07,12.10
2012,06,13,00,08,12.10
2012,06,13,00,10,12.10
2012,06,13,00,11,12.10
2012,06,13,00,12,12.10
2012,06,13,00,13,12.00
2012,06,13,00,15,12.00
2012,06,13,00,16,12.00
2012,06,13,00,17,12.00
2012,06,13,00,18,12.00
2012,06,13,00,20,12.00
2012,06,13,00,21,11.90
2012,06,13,00,22,11.90
2012,06,13,00,23,11.90
2012,06,13,00,24,11.90
2012,06,13,00,26,11.90
2012,06,13,00,27,11.90
2012,06,13,00,28,11.80
2012,06,13,00,29,11.80
2012,06,13,00,30,11.80
2012,06,13,00,31,11.80
2012,06,13,00,32,11.80
2012,06,13,00,33,11.80
2012,06,13,00,34,11.80
2012,06,13,00,35,11.80
2012,06,13,00,36,11.80
2012,06,13,00,37,11.70
2012,06,13,00,38,11.70
2012,06,13,00,39,11.70
2012,06,13,00,40,11.70
2012,06,13,00,41,11.70
2012,06,13,00,42,11.70
2012,06,13,00,43,11.70
2012,06,13,00,44,11.70
2012,06,13,00,45,11.70
2012,06,13,00,46,11.70
2012,06,13,00,47,11.70
2012,06,13,00,48,11.70
2012,06,13,00,49,11.70
2012,06,13,00,50,11.70
2012,06,13,00,52,11.70
2012,06,13,00,53,11.70
2012,06,13,00,54,11.70
2012,06,13,00,56,11.70
2012,06,13,00,57,11.70
2012,06,13,00,58,11.70
2012,06,13,00,59,11.70
2012,06,13,01,01,11.70
2012,06,13,01,02,11.60
2012,06,13,01,03,11.60
2012,06,13,01,04,11.60
2012,06,13,01,05,11.60
2012,06,13,01,06,11.60
2012,06,13,01,07,11.60
2012,06,13,01,08,11.60
2012,06,13,01,09,11.60
2012,06,13,01,10,11.60
2012,06,13,01,11,11.50
2012,06,13,01,12,11.50
2012,06,13,01,13,11.40
2012,06,13,01,14,11.40
2012,06,13,01,15,11.40
2012,06,13,01,16,11.40
2012,06,13,01,17,11.40
2012,06,13,01,18,11.30
2012,06,13,01,19,11.30
2012,06,13,01,21,11.30
2012,06,13,01,22,11.30
2012,06,13,01,23,11.30
2012,06,13,01,24,11.30
2012,06,13,01,26,11.30
2012,06,13,01,27,11.30
2012,06,13,01,28,11.30
2012,06,13,01,29,11.30
2012,06,13,01,30,11.30
2012,06,13,01,32,11.20
2012,06,13,01,33,11.20
2012,06,13,01,34,11.20
2012,06,13,01,36,11.20
2012,06,13,01,37,11.20
2012,06,13,01,38,11.20
2012,06,13,01,40,11.20
2012,06,13,01,41,11.20
2012,06,13,01,42,11.20
2012,06,13,01,44,11.20
2012,06,13,01,45,11.20
2012,06,13,01,46,11.20
2012,06,13,01,47,11.20
2012,06,13,01,49,11.20
2012,06,13,01,50,11.10
2012,06,13,01,51,11.10
2012,06,13,01,52,11.10
2012,06,13,01,54,11.10
2012,06,13,01,55,11.10
2012,06,13,01,56,11.10
2012,06,13,01,57,11.10
2012,06,13,01,58,11.10
2012,06,13,02,00,11.00
2012,06,13,02,01,11.00
2012,06,13,02,02,11.00
2012,06,13,02,03,10.90
2012,06,13,02,05,10.90
2012,06,13,02,06,10.90
2012,06,13,02,07,10.90
2012,06,13,02,08,10.90
2012,06,13,02,09,10.90
2012,06,13,02,10,10.80
2012,06,13,02,11,10.80
2012,06,13,02,12,10.80
2012,06,13,02,14,10.80
2012,06,13,02,15,10.80
2012,06,13,02,16,10.80
2012,06,13,02,18,10.70
2012,06,13,02,19,10.70
2012,06,13,02,20,10.70
2012,06,13,02,21,10.70
2012,06,13,02,23,10.70
2012,06,13,02,24,10.70
2012,06,13,02,25,10.70
2012,06,13,02,26,10.60
2012,06,13,02,28,10.70
2012,06,13,02,29,10.60
2012,06,13,02,30,10.60
2012,06,13,02,31,10.60
2012,06,13,02,32,10.60
2012,06,13,02,34,10.60
2012,06,13,02,35,10.60
2012,06,13,02,36,10.60
2012,06,13,02,37,10.60
2012,06,13,02,39,10.60
2012,06,13,02,40,10.60
2012,06,13,02,41,10.60
2012,06,13,02,42,10.60
2012,06,13,02,44,10.60
2012,06,13,02,45,10.60
2012,06,13,02,46,10.60
2012,06,13,02,47,10.60
2012,06,13,02,49,10.60
2012,06,13,02,50,10.60
2012,06,13,02,51,10.60
2012,06,13,02,52,10.60
2012,06,13,02,53,10.60
2012,06,13,02,54,10.50
2012,06,13,02,55,10.50
2012,06,13,02,56,10.50
2012,06,13,02,57,10.50
2012,06,13,02,58,10.50
2012,06,13,02,59,10.50
2012,06,13,03,00,10.50
2012,06,13,03,01,10.50
2012,06,13,03,02,10.50
2012,06,13,03,03,10.50
2012,06,13,03,04,10.40
2012,06,13,03,05,10.50
2012,06,13,03,06,10.40
2012,06,13,03,07,10.40
2012,06,13,03,09,10.40
2012,06,13,03,10,10.40
2012,06,13,03,11,10.40
2012,06,13,03,12,10.40
2012,06,13,03,13,10.40
2012,06,13,03,14,10.40
2012,06,13,03,15,10.40
2012,06,13,03,16,10.40
2012,06,13,03,18,10.40
2012,06,13,03,19,10.40
2012,06,13,03,20,10.40
2012,06,13,03,21,10.40
2012,06,13,03,22,10.40
2012,06,13,03,23,10.40
2012,06,13,03,25,10.40
2012,06,13,03,26,10.40
2012,06,13,03,27,10.30
2012,06,13,03,28,10.30
2012,06,13,03,29,10.30
2012,06,13,03,30,10.30
2012,06,13,03,31,10.30
2012,06,13,03,32,10.30
2012,06,13,03,35,10.30
2012,06,13,03,36,10.30
2012,06,13,03,37,10.30
2012,06,13,03,38,10.20
2012,06,13,03,39,10.20
2012,06,13,03,40,10.20
2012,06,13,03,41,10.20
2012,06,13,03,42,10.20
2012,06,13,03,43,10.20
2012,06,13,03,44,10.20
2012,06,13,03,45,10.20
2012,06,13,03,46,10.20
2012,06,13,03,47,10.30
2012,06,13,03,48,10.20
2012,06,13,03,49,10.30
2012,06,13,03,50,10.20
2012,06,13,03,51,10.30
2012,06,13,03,52,10.30
2012,06,13,03,53,10.30
2012,06,13,03,54,10.30
2012,06,13,03,55,10.30
2012,06,13,03,56,10.30
2012,06,13,03,57,10.30
2012,06,13,03,58,10.30
2012,06,13,03,59,10.30
2012,06,13,04,00,10.30
2012,06,13,04,01,10.30
2012,06,13,04,02,10.30
2012,06,13,04,04,10.30
2012,06,13,04,05,10.30
2012,06,13,04,06,10.30
2012,06,13,04,07,10.30
2012,06,13,04,09,10.30
2012,06,13,04,10,10.30
2012,06,13,04,11,10.30
2012,06,13,04,12,10.30
2012,06,13,04,13,10.30
2012,06,13,04,14,10.30
2012,06,13,04,15,10.30
2012,06,13,04,16,10.30
2012,06,13,04,17,10.30
2012,06,13,04,18,10.30
2012,06,13,04,20,10.20
2012,06,13,04,21,10.30
2012,06,13,04,22,10.20
2012,06,13,04,23,10.20
2012,06,13,04,24,10.20
2012,06,13,04,26,10.20
2012,06,13,04,27,10.20
2012,06,13,04,28,10.20
2012,06,13,04,29,10.20
2012,06,13,04,31,10.20
2012,06,13,04,32,10.20
2012,06,13,04,33,10.20
2012,06,13,04,34,10.20
2012,06,13,04,36,10.20
2012,06,13,04,37,10.20
2012,06,13,04,38,10.20
2012,06,13,04,40,10.20
2012,06,13,04,41,10.20
2012,06,13,04,42,10.20
2012,06,13,04,43,10.20
2012,06,13,04,45,10.20
2012,06,13,04,46,10.30
2012,06,13,04,47,10.20
2012,06,13,04,48,10.20
2012,06,13,04,50,10.20
2012,06,13,04,51,10.20
2012,06,13,04,52,10.20
2012,06,13,04,53,10.20
2012,06,13,04,54,10.20
2012,06,13,04,56,10.20
2012,06,13,04,57,10.20
2012,06,13,04,58,10.30
2012,06,13,04,59,10.30
2012,06,13,05,00,10.20
2012,06,13,05,02,10.30
2012,06,13,05,03,10.30
2012,06,13,05,04,10.30
2012,06,13,05,05,10.20
2012,06,13,05,07,10.30
2012,06,13,05,08,10.30
2012,06,13,05,09,10.30
2012,06,13,05,10,10.30
2012,06,13,05,11,10.30
2012,06,13,05,12,10.30
2012,06,13,05,13,10.30
2012,06,13,05,14,10.30
2012,06,13,05,15,10.30
2012,06,13,05,17,10.30
2012,06,13,05,18,10.30
2012,06,13,05,19,10.40
2012,06,13,05,20,10.40
2012,06,13,05,21,10.40
2012,06,13,05,23,10.40
2012,06,13,05,24,10.40
2012,06,13,05,25,10.40
2012,06,13,05,27,10.40
2012,06,13,05,28,10.40
2012,06,13,05,29,10.40
2012,06,13,05,30,10.40
2012,06,13,05,31,10.40
2012,06,13,05,32,10.40
2012,06,13,05,33,10.40
2012,06,13,05,34,10.40
2012,06,13,05,35,10.40
2012,06,13,05,37,10.40
2012,06,13,05,38,10.40
2012,06,13,05,39,10.40
2012,06,13,05,40,10.40
2012,06,13,05,41,10.40
2012,06,13,05,42,10.40
2012,06,13,05,43,10.40
2012,06,13,05,44,10.40
2012,06,13,05,45,10.40
2012,06,13,05,46,10.40
2012,06,13,05,47,10.40
2012,06,13,05,48,10.40
2012,06,13,05,49,10.40
2012,06,13,05,51,10.40
2012,06,13,05,52,10.40
2012,06,13,05,53,10.40
2012,06,13,05,54,10.40
2012,06,13,05,55,10.40
2012,06,13,05,56,10.40
2012,06,13,05,57,10.40
2012,06,13,05,58,10.40
2012,06,13,05,59,10.40
2012,06,13,06,00,10.40
2012,06,13,06,01,10.40
2012,06,13,06,02,10.40
2012,06,13,06,03,10.40
2012,06,13,06,05,10.40
2012,06,13,06,06,10.40
2012,06,13,06,07,10.40
2012,06,13,06,08,10.40
2012,06,13,06,09,10.40
2012,06,13,06,10,10.30
2012,06,13,06,11,10.30
2012,06,13,06,12,10.30
2012,06,13,06,13,10.30
2012,06,13,06,14,10.30
2012,06,13,06,15,10.30
2012,06,13,06,16,10.30
2012,06,13,06,17,10.30
2012,06,13,06,18,10.30
2012,06,13,06,19,10.30
2012,06,13,06,20,10.30
2012,06,13,06,21,10.30
2012,06,13,06,22,10.30
2012,06,13,06,24,10.30
2012,06,13,06,25,10.30
2012,06,13,06,26,10.30
2012,06,13,06,27,10.30
2012,06,13,06,28,10.30
2012,06,13,06,29,10.30
2012,06,13,06,30,10.30
2012,06,13,06,31,10.30
2012,06,13,06,32,10.30
2012,06,13,06,33,10.30
2012,06,13,06,34,10.40
2012,06,13,06,35,10.40
2012,06,13,06,36,10.40
2012,06,13,06,37,10.40
2012,06,13,06,38,10.40
2012,06,13,06,40,10.50
2012,06,13,06,41,10.60
2012,06,13,06,42,10.60
2012,06,13,06,43,10.60
2012,06,13,06,44,10.70
2012,06,13,06,45,10.70
2012,06,13,06,46,10.70
2012,06,13,06,47,10.70
2012,06,13,06,48,10.70
2012,06,13,06,49,10.70
2012,06,13,06,50,10.70
2012,06,13,06,51,10.70
2012,06,13,06,52,10.70
2012,06,13,06,53,10.80
2012,06,13,06,54,10.80
2012,06,13,06,56,10.80
2012,06,13,06,57,10.80
2012,06,13,06,58,10.80
2012,06,13,06,59,10.80
2012,06,13,07,00,10.80
2012,06,13,07,01,10.80
2012,06,13,07,02,10.80
2012,06,13,07,03,10.70
2012,06,13,07,04,10.70
2012,06,13,07,05,10.70
2012,06,13,07,06,10.70
2012,06,13,07,07,10.70
2012,06,13,07,08,10.70
2012,06,13,07,09,10.70
2012,06,13,07,10,10.70
2012,06,13,07,12,10.70
2012,06,13,07,13,10.70
2012,06,13,07,14,10.70
2012,06,13,07,15,10.70
2012,06,13,07,16,10.60
2012,06,13,07,18,10.60
2012,06,13,07,19,10.60
2012,06,13,07,20,10.60
2012,06,13,07,21,10.70
2012,06,13,07,22,10.70
2012,06,13,07,23,10.70
2012,06,13,07,24,10.70
2012,06,13,07,25,10.80
2012,06,13,07,26,10.80
2012,06,13,07,27,10.80
2012,06,13,07,28,10.80
2012,06,13,07,29,10.80
2012,06,13,07,30,10.80
2012,06,13,07,32,10.80
2012,06,13,07,33,10.80
2012,06,13,07,34,10.80
2012,06,13,07,35,10.80
2012,06,13,07,36,10.90
2012,06,13,07,37,10.80
2012,06,13,07,38,10.80
2012,06,13,07,39,10.90
2012,06,13,07,40,10.90
2012,06,13,07,41,10.90
2012,06,13,07,42,10.90
2012,06,13,07,43,10.90
2012,06,13,07,45,10.90
2012,06,13,07,46,10.90
2012,06,13,07,47,10.90
2012,06,13,07,48,10.90
2012,06,13,07,49,11.00
2012,06,13,07,50,11.00
2012,06,13,07,51,11.10
2012,06,13,07,52,11.10
2012,06,13,07,53,11.10
2012,06,13,07,54,11.10
2012,06,13,07,55,11.20
2012,06,13,07,56,11.20
2012,06,13,07,57,11.20
2012,06,13,07,58,11.20
2012,06,13,07,59,11.20
2012,06,13,08,00,11.20
2012,06,13,08,01,11.20
2012,06,13,08,02,11.30
2012,06,13,08,03,11.30
2012,06,13,08,04,11.30
2012,06,13,08,05,11.30
2012,06,13,08,06,11.30
2012,06,13,08,07,11.30
2012,06,13,08,08,11.30
2012,06,13,08,09,11.30
2012,06,13,08,10,11.40
2012,06,13,08,11,11.40
2012,06,13,08,12,11.40
2012,06,13,08,13,11.40
2012,06,13,08,15,11.50
2012,06,13,08,16,11.60
2012,06,13,08,17,11.60
2012,06,13,08,18,11.60
2012,06,13,08,19,11.60
2012,06,13,08,20,11.60
2012,06,13,08,21,11.60
2012,06,13,08,22,11.60
2012,06,13,08,23,11.60
2012,06,13,08,25,11.70
2012,06,13,08,26,11.60
2012,06,13,08,27,11.70
2012,06,13,08,28,11.70
2012,06,13,08,30,11.70
2012,06,13,08,31,11.70
2012,06,13,08,32,11.80
2012,06,13,08,33,11.80
2012,06,13,08,34,11.80
2012,06,13,08,35,11.80
2012,06,13,08,36,11.80
2012,06,13,08,37,11.90
2012,06,13,08,38,11.90
2012,06,13,08,40,11.90
2012,06,13,08,41,12.00
2012,06,13,08,42,12.00
2012,06,13,08,43,12.10
2012,06,13,08,44,12.10
2012,06,13,08,45,12.00
2012,06,13,08,46,12.00
2012,06,13,08,47,11.90
2012,06,13,08,48,11.90
2012,06,13,08,49,12.00
2012,06,13,08,50,12.00
2012,06,13,08,51,12.00
2012,06,13,08,52,12.10
2012,06,13,08,53,12.10
2012,06,13,08,55,12.10
2012,06,13,08,56,12.20
2012,06,13,08,57,12.30
2012,06,13,08,58,12.30
2012,06,13,08,59,12.30
2012,06,13,09,00,12.30
2012,06,13,09,01,12.40
2012,06,13,09,02,12.40
2012,06,13,09,03,12.30
2012,06,13,09,04,12.30
2012,06,13,09,05,12.40
2012,06,13,09,06,12.40
2012,06,13,09,07,12.40
2012,06,13,09,08,12.40
2012,06,13,09,09,12.40
2012,06,13,09,10,12.40
2012,06,13,09,11,12.40
2012,06,13,09,12,12.40
2012,06,13,09,13,12.40
2012,06,13,09,15,12.50
2012,06,13,09,16,12.60
2012,06,13,09,17,12.60
2012,06,13,09,18,12.60
2012,06,13,09,19,12.60
2012,06,13,09,20,12.60
2012,06,13,09,21,12.60
2012,06,13,09,22,12.60
2012,06,13,09,24,12.60
2012,06,13,09,25,12.70
2012,06,13,09,26,12.70
2012,06,13,09,27,12.70
2012,06,13,09,29,12.70
2012,06,13,09,30,12.70
2012,06,13,09,31,12.70
2012,06,13,09,32,12.70
2012,06,13,09,33,12.70
2012,06,13,09,35,12.60
2012,06,13,09,36,12.60
2012,06,13,09,37,12.60
2012,06,13,09,38,12.60
2012,06,13,09,40,12.60
2012,06,13,09,41,12.60
2012,06,13,09,42,12.70
2012,06,13,09,43,12.70
2012,06,13,09,44,12.80
2012,06,13,09,46,12.70
2012,06,13,09,47,12.70
2012,06,13,09,48,12.60
2012,06,13,09,49,12.60
2012,06,13,09,51,12.60
2012,06,13,09,52,12.60
2012,06,13,09,53,12.70
2012,06,13,09,54,12.80
2012,06,13,09,56,12.80
2012,06,13,09,57,12.90
2012,06,13,09,58,12.80
2012,06,13,09,59,12.80
2012,06,13,10,01,12.80
2012,06,13,10,02,12.80
2012,06,13,10,03,12.80
2012,06,13,10,04,12.80
2012,06,13,10,06,12.80
2012,06,13,10,07,12.80
2012,06,13,10,08,12.80
2012,06,13,10,09,12.80
2012,06,13,10,11,12.80
2012,06,13,10,12,12.80
2012,06,13,10,13,12.80
2012,06,13,10,14,12.80
2012,06,13,10,16,12.80
2012,06,13,10,17,12.80
2012,06,13,10,18,12.90
2012,06,13,10,19,13.10
2012,06,13,10,20,13.10
2012,06,13,10,21,13.20
2012,06,13,10,23,13.20
2012,06,13,10,24,13.20
2012,06,13,10,25,13.20
2012,06,13,10,26,13.20
2012,06,13,10,28,13.20
2012,06,13,10,29,13.20
2012,06,13,10,30,13.20
2012,06,13,10,32,13.20
2012,06,13,10,33,13.20
2012,06,13,10,35,13.10
2012,06,13,10,36,13.10
2012,06,13,10,37,13.10
2012,06,13,10,38,13.20
2012,06,13,10,39,13.30
2012,06,13,10,40,13.40
2012,06,13,10,41,13.50
2012,06,13,10,42,13.50
2012,06,13,10,43,13.40
2012,06,13,10,44,13.30
2012,06,13,10,45,13.30
2012,06,13,10,46,13.30
2012,06,13,10,47,13.30
2012,06,13,10,48,13.40
2012,06,13,10,49,13.60
2012,06,13,10,50,13.60
2012,06,13,10,51,13.70
2012,06,13,10,52,13.70
2012,06,13,10,54,13.70
2012,06,13,10,55,13.70
2012,06,13,10,56,13.60
2012,06,13,10,57,13.50
2012,06,13,10,58,13.50
2012,06,13,10,59,13.60
2012,06,13,11,00,13.60
2012,06,13,11,01,13.60
2012,06,13,11,02,13.60
2012,06,13,11,03,13.40
2012,06,13,11,05,13.40
2012,06,13,11,06,13.40
2012,06,13,11,07,13.40
2012,06,13,11,08,13.40
2012,06,13,11,09,13.40
2012,06,13,11,10,13.40
2012,06,13,11,11,13.50
2012,06,13,11,12,13.50
2012,06,13,11,13,13.60
2012,06,13,11,14,13.60
2012,06,13,11,15,13.60
2012,06,13,11,16,13.60
2012,06,13,11,17,13.60
2012,06,13,11,18,13.60
2012,06,13,11,20,13.60
2012,06,13,11,21,13.40
2012,06,13,11,22,13.50
2012,06,13,11,23,13.60
2012,06,13,11,25,13.60
2012,06,13,11,26,13.50
2012,06,13,11,27,13.50
2012,06,13,11,28,13.50
2012,06,13,11,29,13.60
2012,06,13,11,31,13.60
2012,06,13,11,32,13.60
2012,06,13,11,33,13.60
2012,06,13,11,34,13.60
2012,06,13,11,36,13.50
2012,06,13,11,37,13.50
2012,06,13,11,38,13.50
2012,06,13,11,39,13.50
2012,06,13,11,41,13.40
2012,06,13,11,42,13.40
2012,06,13,11,43,13.50
2012,06,13,11,44,13.60
2012,06,13,11,45,13.70
2012,06,13,11,46,13.80
2012,06,13,11,47,13.80
2012,06,13,11,48,13.80
2012,06,13,11,49,13.70
2012,06,13,11,50,13.60
2012,06,13,11,51,13.60
2012,06,13,11,52,13.40
2012,06,13,11,54,13.30
2012,06,13,11,55,13.20
2012,06,13,11,56,13.20
2012,06,13,11,57,13.20
2012,06,13,11,58,13.20
2012,06,13,11,59,13.20
2012,06,13,12,00,13.30
2012,06,13,12,01,13.30
2012,06,13,12,02,13.30
2012,06,13,12,03,13.30
2012,06,13,12,04,13.40
2012,06,13,12,05,13.60
2012,06,13,12,06,13.60
2012,06,13,12,08,13.60
2012,06,13,12,09,13.60
2012,06,13,12,10,13.60
2012,06,13,12,11,13.50
2012,06,13,12,12,13.40
2012,06,13,12,13,13.30
2012,06,13,12,14,13.30
2012,06,13,12,15,13.40
2012,06,13,12,17,13.40
2012,06,13,12,18,13.40
2012,06,13,12,19,13.40
2012,06,13,12,20,13.30
2012,06,13,12,22,13.30
2012,06,13,12,23,13.20
2012,06,13,12,24,13.10
2012,06,13,12,25,13.20
2012,06,13,12,26,13.30
2012,06,13,12,28,13.40
2012,06,13,12,29,13.40
2012,06,13,12,30,13.40
2012,06,13,12,31,13.40
2012,06,13,12,33,13.40
2012,06,13,12,34,13.50
2012,06,13,12,35,13.60
2012,06,13,12,36,13.60
2012,06,13,12,38,13.70
2012,06,13,12,39,13.70
2012,06,13,12,40,13.70
2012,06,13,12,41,13.60
2012,06,13,12,42,13.60
2012,06,13,12,44,13.40
2012,06,13,12,45,13.40
2012,06,13,12,46,13.40
2012,06,13,12,47,13.60
2012,06,13,12,49,13.60
2012,06,13,12,50,13.80
2012,06,13,12,51,13.80
2012,06,13,12,52,13.80
2012,06,13,12,54,13.80
2012,06,13,12,55,13.70
2012,06,13,12,56,13.60
2012,06,13,12,57,13.60
2012,06,13,12,59,13.70
2012,06,13,13,00,13.80
2012,06,13,13,01,13.80
2012,06,13,13,02,13.80
2012,06,13,13,04,13.80
2012,06,13,13,05,13.80
2012,06,13,13,06,13.80
2012,06,13,13,07,13.80
2012,06,13,13,08,13.90
2012,06,13,13,10,14.10
2012,06,13,13,11,14.30
2012,06,13,13,12,14.30
2012,06,13,13,13,14.40
2012,06,13,13,14,14.60
2012,06,13,13,16,14.70
2012,06,13,13,17,14.80
2012,06,13,13,18,14.70
2012,06,13,13,20,14.60
2012,06,13,13,21,14.70
2012,06,13,13,22,14.80
2012,06,13,13,23,14.80
2012,06,13,13,24,14.80
2012,06,13,13,25,14.80
2012,06,13,13,26,14.70
2012,06,13,13,27,14.80
2012,06,13,13,28,14.80
2012,06,13,13,29,14.70
2012,06,13,13,30,14.70
2012,06,13,13,31,14.70
2012,06,13,13,32,14.70
2012,06,13,13,33,14.60
2012,06,13,13,34,14.60
2012,06,13,13,35,14.60
2012,06,13,13,36,14.60
2012,06,13,13,37,14.60
2012,06,13,13,39,14.60
2012,06,13,13,40,14.60
2012,06,13,13,41,14.50
2012,06,13,13,42,14.40
2012,06,13,13,43,14.30
2012,06,13,13,44,14.30
2012,06,13,13,45,14.20
2012,06,13,13,46,14.20
2012,06,13,13,48,14.20
2012,06,13,13,49,14.20
2012,06,13,13,50,14.20
2012,06,13,13,51,14.40
2012,06,13,13,53,14.40
2012,06,13,13,54,14.40
2012,06,13,13,55,14.40
2012,06,13,13,56,14.50
2012,06,13,13,58,14.50
2012,06,13,13,59,14.40
2012,06,13,14,00,14.30
2012,06,13,14,01,14.40
2012,06,13,14,02,14.40
2012,06,13,14,03,14.50
2012,06,13,14,04,14.60
2012,06,13,14,05,14.70
2012,06,13,14,06,14.70
2012,06,13,14,08,14.50
2012,06,13,14,09,14.40
2012,06,13,14,10,14.40
2012,06,13,14,11,14.60
2012,06,13,14,13,14.70
2012,06,13,14,14,14.60
2012,06,13,14,15,14.60
2012,06,13,14,17,14.70
2012,06,13,14,18,14.70
2012,06,13,14,19,14.80
2012,06,13,14,20,14.80
2012,06,13,14,21,14.90
2012,06,13,14,23,15.10
2012,06,13,14,24,15.00
2012,06,13,14,25,14.90
2012,06,13,14,26,14.80
2012,06,13,14,28,14.70
2012,06,13,14,29,14.70
2012,06,13,14,30,14.80
2012,06,13,14,31,14.80
2012,06,13,14,32,14.80
2012,06,13,14,33,14.90
2012,06,13,14,34,15.10
2012,06,13,14,35,15.20
2012,06,13,14,37,15.30
2012,06,13,14,38,15.40
2012,06,13,14,39,15.50
2012,06,13,14,40,15.50
2012,06,13,14,41,15.40
2012,06,13,14,42,15.40
2012,06,13,14,43,15.30
2012,06,13,14,44,15.30
2012,06,13,14,45,15.40
2012,06,13,14,46,15.40
2012,06,13,14,47,15.50
2012,06,13,14,48,15.40
2012,06,13,14,49,15.40
2012,06,13,14,50,15.40
2012,06,13,14,51,15.60
2012,06,13,14,52,15.70
2012,06,13,14,54,15.70
2012,06,13,14,55,15.70
2012,06,13,14,56,15.70
2012,06,13,14,57,15.70
2012,06,13,14,59,15.60
2012,06,13,15,00,15.60
2012,06,13,15,01,15.60
2012,06,13,15,02,15.50
2012,06,13,15,03,15.50
2012,06,13,15,04,15.50
2012,06,13,15,05,15.60
2012,06,13,15,06,15.60
2012,06,13,15,07,15.70
2012,06,13,15,09,15.70
2012,06,13,15,10,15.60
2012,06,13,15,11,15.60
2012,06,13,15,12,15.60
2012,06,13,15,13,15.60
2012,06,13,15,15,15.50
2012,06,13,15,16,15.40
2012,06,13,15,17,15.50
2012,06,13,15,18,15.40
2012,06,13,15,19,15.30
2012,06,13,15,20,15.30
2012,06,13,15,21,15.40
2012,06,13,15,22,15.40
2012,06,13,15,23,15.40
2012,06,13,15,25,15.40
2012,06,13,15,26,15.50
2012,06,13,15,27,15.60
2012,06,13,15,29,15.70
2012,06,13,15,30,15.80
2012,06,13,15,31,15.80
2012,06,13,15,32,15.70
2012,06,13,15,34,15.70
2012,06,13,15,35,15.60
2012,06,13,15,36,15.40
2012,06,13,15,37,15.40
2012,06,13,15,39,15.40
2012,06,13,15,40,15.30
2012,06,13,15,41,15.30
2012,06,13,15,42,15.30
2012,06,13,15,43,15.30
2012,06,13,15,44,15.30
2012,06,13,15,45,15.20
2012,06,13,15,46,15.10
2012,06,13,15,47,15.00
2012,06,13,15,49,15.00
2012,06,13,15,50,15.00
2012,06,13,15,51,15.00
2012,06,13,15,52,15.10
2012,06,13,15,54,15.00
2012,06,13,15,55,15.00
2012,06,13,15,56,15.00
2012,06,13,15,57,15.00
2012,06,13,15,59,15.10
2012,06,13,16,00,15.20
2012,06,13,16,01,15.30
2012,06,13,16,02,15.40
2012,06,13,16,03,15.40
2012,06,13,16,04,15.50
2012,06,13,16,05,15.50
2012,06,13,16,07,15.50
2012,06,13,16,08,15.60
2012,06,13,16,09,15.60
2012,06,13,16,10,15.60
2012,06,13,16,11,15.60
2012,06,13,16,13,15.60
2012,06,13,16,14,15.60
2012,06,13,16,15,15.60
2012,06,13,16,16,15.70
2012,06,13,16,17,15.70
2012,06,13,16,18,15.80
2012,06,13,16,19,15.90
2012,06,13,16,20,16.00
2012,06,13,16,21,15.90
2012,06,13,16,22,15.90
2012,06,13,16,23,15.80
2012,06,13,16,25,15.80
2012,06,13,16,26,15.80
2012,06,13,16,27,15.80
2012,06,13,16,28,15.80
2012,06,13,16,30,15.90
2012,06,13,16,31,15.90
2012,06,13,16,32,15.80
2012,06,13,16,33,15.90
2012,06,13,16,34,15.90
2012,06,13,16,35,15.90
2012,06,13,16,36,16.00
2012,06,13,16,37,16.00
2012,06,13,16,38,16.00
2012,06,13,16,39,16.00
2012,06,13,16,40,16.10
2012,06,13,16,41,16.10
2012,06,13,16,42,16.10
2012,06,13,16,43,16.10
2012,06,13,16,44,16.00
2012,06,13,16,45,15.90
2012,06,13,16,46,15.90
2012,06,13,16,47,16.00
2012,06,13,16,48,16.00
2012,06,13,16,49,15.90
2012,06,13,16,51,15.80
2012,06,13,16,52,15.80
2012,06,13,16,53,15.80
2012,06,13,16,54,15.80
2012,06,13,16,55,15.80
2012,06,13,16,57,15.80
2012,06,13,16,58,15.90
2012,06,13,16,59,15.90
2012,06,13,17,01,15.90
2012,06,13,17,02,16.00
2012,06,13,17,03,16.00
2012,06,13,17,04,16.00
2012,06,13,17,05,16.00
2012,06,13,17,06,16.00
2012,06,13,17,07,15.90
2012,06,13,17,08,15.80
2012,06,13,17,09,15.80
2012,06,13,17,11,15.70
2012,06,13,17,12,15.50
2012,06,13,17,13,15.40
2012,06,13,17,14,15.40
2012,06,13,17,15,15.40
2012,06,13,17,16,15.40
2012,06,13,17,17,15.50
2012,06,13,17,18,15.60
2012,06,13,17,19,15.60
2012,06,13,17,21,15.60
2012,06,13,17,22,15.40
2012,06,13,17,23,15.40
2012,06,13,17,24,15.30
2012,06,13,17,25,15.20
2012,06,13,17,26,15.10
2012,06,13,17,27,15.00
2012,06,13,17,28,14.90
2012,06,13,17,29,14.90
2012,06,13,17,31,14.90
2012,06,13,17,32,15.00
2012,06,13,17,33,15.10
2012,06,13,17,34,15.20
2012,06,13,17,35,15.20
2012,06,13,17,36,15.30
2012,06,13,17,37,15.30
2012,06,13,17,38,15.30
2012,06,13,17,39,15.40
2012,06,13,17,40,15.40
2012,06,13,17,41,15.40
2012,06,13,17,42,15.40
2012,06,13,17,43,15.30
2012,06,13,17,44,15.30
2012,06,13,17,45,15.30
2012,06,13,17,46,15.30
2012,06,13,17,47,15.20
2012,06,13,17,48,15.10
2012,06,13,17,50,15.10
2012,06,13,17,51,15.10
2012,06,13,17,52,15.10
2012,06,13,17,53,15.10
2012,06,13,17,54,15.10
2012,06,13,17,55,15.10
2012,06,13,17,56,15.10
2012,06,13,17,57,15.10
2012,06,13,17,58,15.10
2012,06,13,17,59,15.10
2012,06,13,18,00,15.10
2012,06,13,18,01,15.10
2012,06,13,18,02,15.10
2012,06,13,18,03,15.00
2012,06,13,18,04,15.00
2012,06,13,18,05,15.00
2012,06,13,18,06,15.00
2012,06,13,18,07,15.00
2012,06,13,18,08,15.00
2012,06,13,18,09,14.90
2012,06,13,18,10,14.90
2012,06,13,18,11,15.00
2012,06,13,18,12,14.90
2012,06,13,18,13,14.90
2012,06,13,18,14,14.90
2012,06,13,18,15,14.90
2012,06,13,18,16,14.90
2012,06,13,18,17,14.90
2012,06,13,18,18,14.80
2012,06,13,18,19,14.80
2012,06,13,18,20,14.80
2012,06,13,18,21,14.80
2012,06,13,18,22,14.70
2012,06,13,18,23,14.70
2012,06,13,18,25,14.70
2012,06,13,18,26,14.80
2012,06,13,18,27,14.80
2012,06,13,18,29,14.80
2012,06,13,18,30,14.70
2012,06,13,18,31,14.70
2012,06,13,18,32,14.70
2012,06,13,18,33,14.70
2012,06,13,18,34,14.70
2012,06,13,18,35,14.70
2012,06,13,18,36,14.70
2012,06,13,18,37,14.70
2012,06,13,18,38,14.60
2012,06,13,18,39,14.40
2012,06,13,18,40,14.40
2012,06,13,18,41,14.40
2012,06,13,18,42,14.50
2012,06,13,18,44,14.50
2012,06,13,18,45,14.40
2012,06,13,18,46,14.30
2012,06,13,18,47,14.30
2012,06,13,18,49,14.40
2012,06,13,18,50,14.30
2012,06,13,18,51,14.30
2012,06,13,18,52,14.30
2012,06,13,18,53,14.30
2012,06,13,18,54,14.20
2012,06,13,18,55,14.20
2012,06,13,18,56,14.20
2012,06,13,18,57,14.20
2012,06,13,18,59,14.20
2012,06,13,19,00,14.20
2012,06,13,19,01,14.20
2012,06,13,19,02,14.20
2012,06,13,19,03,14.10
2012,06,13,19,04,14.10
2012,06,13,19,05,14.10
2012,06,13,19,06,14.10
2012,06,13,19,08,14.10
2012,06,13,19,09,14.10
2012,06,13,19,10,14.10
2012,06,13,19,11,14.10
2012,06,13,19,12,14.10
2012,06,13,19,13,14.00
2012,06,13,19,14,14.00
2012,06,13,19,15,13.90
2012,06,13,19,16,13.90
2012,06,13,19,18,13.90
2012,06,13,19,19,13.80
2012,06,13,19,20,13.80
2012,06,13,19,21,13.80
2012,06,13,19,22,13.70
2012,06,13,19,23,13.70
2012,06,13,19,24,13.70
2012,06,13,19,25,13.70
2012,06,13,19,26,13.70
2012,06,13,19,27,13.70
2012,06,13,19,28,13.70
2012,06,13,19,29,13.70
2012,06,13,19,30,13.70
2012,06,13,19,32,13.70
2012,06,13,19,33,13.70
2012,06,13,19,34,13.70
2012,06,13,19,36,13.70
2012,06,13,19,37,13.60
2012,06,13,19,38,13.60
2012,06,13,19,39,13.60
2012,06,13,19,40,13.50
2012,06,13,19,41,13.50